Temperature
14 14 14 13 13 14 14 14 13 13 14 14 15 16 16 15 15 15 15 15 15 15 15 15 15 15 15 15 15 15 15 15 14 14 14 14 14 14
14 14 13 13 13 13 13 13 13 13 13 14 15 15 16 16 16 15 15 15 15 15 15 15 15 15 15 15 15 15 15 15 15 14 14 14 14 14
14 13 13 13 12 12 13 13 13 13 13 13 14 15 15 16 16 16 15 15 15 15 15 15 15 15 15 15 14 14 14 15 15 14 14 14 15 14
13 13 12 12 12 12 13 13 13 13 13 13 14 15 15 15 16 16 15 15 15 15 15 15 15 15 14 14 14 14 14 14 15 14 14 15 14 14
13 13 12 12 12 12 12 13 13 13 13 13 14 14 14 15 15 16 16 15 15 15 15 15 15 15 14 14 14 14 14 14 15 15 15 15 15 14
13 13 12 12 13 12 12 13 13 13 13 13 13 13 13 14 14 15 15 15 15 15 15 15 15 15 14 14 14 14 14 15 15 14 15 15 15 15
13 13 13 12 12 12 12 12 12 12 12 13 13 13 13 13 14 14 15 15 15 15 15 15 15 15 15 14 14 14 14 14 15 14 14 14 15 14
13 13 13 13 12 12 12 12 12 12 12 12 12 12 12 12 13 13 14 14 14 15 14 15 14 15 15 14 14 14 14 14 14 14 14 14 14 14
13 13 13 13 13 13 12 12 12 12 12 12 12 12 12 12 12 12 13 13 14 14 14 15 14 14 14 14 14 15 14 14 14 14 14 14 14 14
13 13 13 13 13 13 13 13 12 12 12 11 11 11 11 11 12 12 12 12 12 13 14 14 14 14 14 14 14 14 14 14 14 14 14 14 14 14
14 13 13 13 13 13 13 13 12 12 12 12 12 11 11 11 12 12 12 12 12 13 13 13 14 13 14 14 14 14 14 14 14 14 14 13 14 14
13 13 13 13 13 12 13 13 13 13 13 12 12 12 12 12 12 12 12 12 12 12 12 12 12 12 13 13 13 13 13 13 13 13 13 13 13 13
12 12 12 12 13 13 13 13 13 13 13 13 13 13 12 12 12 12 12 12 12 12 12 12 12 12 12 12 12 12 12 12 13 13 13 12 12 12
12 12 12 12 12 12 12 13 13 13 13 13 13 13 12 12 12 12 11 11 11 11 11 11 11 11 11 11 11 12 12 12 12 12 12 12 12 12
11 11 11 12 12 12 12 12 12 13 13 13 13 12 12 12 12 11 11 11 11 11 11 11 11 10 11 11 10 11 11 11 11 11 11 11 11 11
10 11 11 11 11 12 11 12 12 12 12 12 11 11 11 11 11 11 11 10 10 10 10 10 10 10 10 10 10 10 10 10 10 10 10 10 10 11
10 10 11 11 11 11 11 11 11 11 11 10 10 10 10 10 10 10 10 10 10 10 10 10 11 11 11 11 11 11 10 10 10 10 10 10 10 10
9 10 10 11 10 10 10 10 10 10 10 10 10 10 10 10 10 10 10 10 10 10 10 10 10 10 10 11 11 10 10 10 9 9 9 9 9 10
9 9 10 10 10 10 10 10 10 10 10 10 10 10 10 10 10 10 10 10 10 10 9 9 9 9 9 10 10 10 9 9 8 8 8 8 9 9
9 9 9 9 10 10 10 10 10 10 10 10 10 10 10 9 9 9 9 9 9 9 9 9 8 8 8 9 9 10 9 8 8 8 8 8 8 8
9 9 9 9 9 9 9 9 9 9 9 9 9 9 8 8 9 9 9 9 8 8 8 8 8 8 8 8 8 8 8 8 8 7 8 7 7 8
8 8 8 8 8 9 9 9 9 9 9 9 8 8 8 8 9 9 8 8 8 8 8 8 8 8 7 7 7 7 7 7 7 7 7 7 7 7
8 8 7 8 7 8 8 8 8 8 8 8 8 8 8 8 8 8 8 8 8 7 7 7 7 7 7 7 7 7 7 7 7 7 7 6 6 6
Wind_Speed
4 3 2 4 6 5 5 5 5 4 3 5 5 4 8 11 12 12 11 11 11 10 8 7 6 4 3 2 1 1 3 4 5 5 6 8 8 8
2 2 2 3 5 6 7 7 7 6 5 4 5 4 4 7 11 11 13 13 13 13 12 10 8 6 5 4 3 3 4 5 6 7 7 8 8 9
1 2 4 3 4 5 6 7 9 8 9 6 3 3 4 5 6 9 11 11 13 14 14 12 10 8 7 6 5 5 5 5 6 8 8 8 7 8
1 2 5 5 6 7 7 9 9 9 9 8 5 4 4 3 3 5 6 9 12 14 15 14 13 12 11 10 9 7 6 6 6 6 7 8 5 4
2 2 5 5 5 5 6 7 8 8 8 7 6 4 3 1 2 2 3 5 9 12 14 15 15 15 15 14 12 10 8 7 6 6 7 4 1 3
4 3 3 2 4 5 4 5 6 7 7 7 5 4 3 1 1 2 4 5 6 7 10 13 15 17 17 15 13 12 10 9 8 8 7 6 4 3
5 3 1 1 3 3 2 1 1 2 3 3 3 3 3 3 3 3 5 3 6 6 4 6 9 10 12 14 14 14 14 12 11 11 10 8 7 5
6 4 3 2 3 4 5 5 5 5 4 2 3 5 5 4 3 4 4 4 4 5 6 5 6 7 9 13 16 16 16 16 15 14 12 10 9 8
6 6 4 4 5 5 5 6 5 7 5 3 3 4 3 4 4 4 5 5 4 4 4 2 3 5 8 12 17 19 19 18 17 16 15 14 13 11
6 6 5 4 4 5 4 5 5 5 6 6 6 6 4 3 3 4 5 4 2 3 5 3 3 3 3 8 14 18 20 20 19 18 17 16 14 13
3 4 4 4 6 7 6 5 6 7 8 12 13 12 11 9 7 5 4 4 3 3 5 4 2 2 2 2 5 10 15 17 17 16 15 15 14 13
2 3 4 5 9 6 6 6 7 7 6 6 8 10 9 7 6 6 5 4 3 3 5 5 2 2 1 0 1 2 4 9 13 15 16 16 15 10
4 4 4 7 8 7 6 7 8 4 3 3 3 2 1 1 1 2 1 2 2 2 4 5 2 1 0 2 1 1 0 1 4 8 14 16 16 13
5 5 5 7 7 7 5 7 9 5 3 2 2 1 1 1 1 1 1 1 2 2 4 5 2 2 1 1 2 2 2 1 2 2 5 8 12 14
5 7 9 10 8 6 5 7 7 5 4 2 1 1 1 2 2 1 1 1 1 1 2 3 2 2 2 2 2 2 2 2 1 2 2 4 4 6
6 6 7 8 5 4 3 5 5 4 3 2 2 2 2 1 1 1 1 1 1 2 2 3 3 3 3 4 4 4 3 3 1 2 3 4 6 9
5 2 3 1 1 2 3 4 3 4 3 3 3 3 2 1 1 1 1 1 2 2 2 2 2 4 5 4 4 6 6 5 4 4 3 4 5 6
2 1 1 2 3 3 3 3 3 3 3 4 4 3 2 2 1 0 1 2 2 2 2 2 2 3 3 4 8 6 4 4 3 3 3 3 6 5
5 4 3 3 5 5 4 4 3 3 3 4 4 4 4 3 3 3 2 2 3 3 3 2 1 1 2 4 4 6 3 2 1 2 3 4 5 5
7 8 7 8 7 6 5 5 5 5 4 5 5 4 4 4 3 3 3 3 3 3 3 3 2 3 3 3 3 3 6 5 3 4 3 3 5 7
8 8 8 8 7 7 6 6 6 6 5 5 4 3 3 3 3 3 4 5 4 4 4 4 4 4 2 2 3 3 3 6 8 6 4 3 3 2
7 7 8 7 7 6 6 6 6 6 6 5 4 3 3 3 3 4 4 5 5 4 4 5 5 3 1 3 3 4 4 4 5 5 3 3 2 3
7 7 7 7 7 7 7 7 7 6 6 6 5 5 4 3 3 4 4 4 5 5 5 5 4 2 2 2 2 2 3 3 3 3 2 3 3 4
Wind_Direction
221 218 170 171 183 195 173 169 198 232 256 232 222 208 210 211 210 206 206 211 206 203 202 200 202 201 191 196 210 296 318 317 309 313 327 332 333 341
226 202 203 174 191 199 193 186 199 216 250 239 224 219 191 207 210 205 208 210 208 206 205 209 213 213 213 221 230 256 285 301 308 311 312 315 320 323
265 268 265 229 207 205 201 204 213 206 230 240 218 223 190 194 205 206 209 207 212 209 210 212 215 219 224 231 235 242 264 285 298 297 290 293 304 325
231 276 281 267 240 219 210 210 215 209 216 237 223 207 212 185 180 188 205 211 214 213 213 216 220 221 224 229 231 232 241 253 270 292 295 282 282 309
242 258 281 281 270 248 229 224 217 209 207 223 225 198 203 148 130 149 196 216 220 219 218 220 223 225 226 225 227 230 237 247 258 272 295 307 301 304
239 270 281 272 275 267 250 238 219 209 201 209 201 183 192 179 168 197 218 215 218 216 217 220 226 231 233 229 229 233 239 245 252 258 269 273 257 268
209 240 306 337 304 291 286 279 214 201 200 202 181 169 176 178 210 201 217 201 218 209 202 219 223 230 234 232 232 233 232 236 242 246 247 247 245 249
199 214 227 231 253 276 281 272 238 203 187 197 212 222 210 201 205 195 186 174 213 190 190 218 209 227 227 229 227 227 228 225 230 236 236 234 233 240
202 206 212 220 228 252 276 281 247 219 199 186 211 236 235 214 202 202 200 191 197 174 169 215 200 234 230 235 234 230 226 223 223 228 227 224 225 229
211 216 215 226 234 226 232 253 256 239 217 208 220 236 229 215 220 219 202 196 196 174 167 217 204 228 223 234 234 231 225 220 219 222 224 224 227 230
238 225 226 247 252 226 207 228 248 247 238 238 235 236 235 232 228 224 203 193 206 200 189 207 209 238 236 253 249 237 229 227 224 222 223 229 231 231
295 275 266 267 277 254 214 211 234 244 225 238 252 254 246 241 248 241 221 195 176 197 190 186 201 222 292 349 357 320 248 236 234 231 226 227 229 225
298 282 275 274 274 282 257 217 217 220 224 215 246 249 202 146 0 319 243 175 166 222 184 179 205 198 261 319 334 33 324 237 214 223 227 230 227 219
294 291 291 292 286 277 264 221 208 190 150 150 124 91 111 138 177 234 242 262 243 245 183 182 208 185 166 292 300 348 358 259 230 211 211 224 233 233
304 301 301 301 292 272 236 193 169 151 142 149 156 122 123 139 113 74 41 35 12 305 183 190 208 206 194 224 267 289 305 299 205 221 216 221 225 227
324 303 294 296 270 197 144 133 134 142 147 148 135 109 97 89 66 53 29 0 308 296 296 255 231 226 224 236 244 252 236 251 225 217 235 234 224 225
294 302 308 305 161 130 119 122 128 137 132 126 119 114 112 121 348 5 358 325 302 323 325 306 272 259 252 251 247 250 257 248 240 219 207 251 244 226
26 50 345 197 137 106 113 112 98 93 81 83 84 80 63 46 3 328 297 295 296 317 316 317 334 324 311 260 229 245 254 259 253 220 210 246 272 245
34 38 27 67 80 76 77 90 91 82 86 85 80 64 52 40 25 22 14 352 340 329 316 308 285 272 287 295 265 222 239 263 254 246 227 227 264 272
32 38 38 52 56 56 54 64 74 71 66 66 62 54 43 34 23 10 353 332 309 301 299 290 267 246 247 269 285 282 237 249 263 275 257 235 257 276
31 39 40 48 53 54 52 58 65 66 67 67 65 63 54 46 19 351 333 318 310 302 303 303 303 303 291 293 276 288 276 263 278 287 297 290 278 272
31 37 40 42 44 50 53 57 62 59 56 50 40 36 37 37 14 353 352 348 341 330 312 308 313 320 280 241 267 290 301 314 321 316 309 310 323 312
37 40 37 36 35 34 35 39 44 45 38 25 14 4 4 11 1 351 344 340 335 337 337 328 324 301 251 248 269 277 297 313 329 340 10 18 333 309
Height
1520 1521 1522 1523 1525 1528 1529 1530 1534 1535 1535 1537 1539 1541 1542 1544 1544 1545 1546 1547 1547 1547 1547 1548 1548 1548 1547 1547 1546 1546 1545 1544 1544 1544 1543 1543 1543 1543
1516 1517 1518 1519 1520 1522 1523 1524 1528 1531 1532 1532 1535 1538 1540 1541 1541 1541 1542 1544 1545 1545 1545 1546 1546 1545 1545 1545 1544 1544 1543 1542 1542 1542 1542 1542 1541 1541
1513 1513 1513 1514 1514 1516 1518 1520 1522 1524 1526 1527 1530 1533 1536 1537 1537 1538 1539 1540 1541 1542 1542 1543 1543 1543 1543 1542 1542 1542 1541 1540 1540 1540 1539 1539 1539 1538
1511 1510 1509 1509 1509 1510 1511 1513 1516 1518 1520 1521 1525 1528 1530 1531 1532 1533 1534 1536 1537 1538 1538 1538 1539 1540 1540 1540 1539 1539 1538 1537 1537 1537 1536 1536 1536 1536
1510 1507 1505 1505 1506 1507 1507 1508 1510 1512 1515 1517 1518 1521 1524 1525 1526 1527 1529 1531 1532 1533 1534 1534 1536 1537 1538 1537 1536 1536 1536 1535 1534 1534 1533 1533 1533 1534
1509 1505 1503 1504 1505 1505 1505 1505 1506 1507 1509 1512 1514 1516 1518 1519 1521 1522 1524 1526 1527 1528 1529 1530 1531 1532 1533 1533 1533 1532 1532 1532 1532 1531 1530 1530 1530 1530
1507 1506 1504 1504 1506 1505 1504 1504 1503 1504 1505 1507 1509 1511 1512 1514 1516 1518 1520 1521 1521 1522 1523 1524 1526 1527 1527 1528 1528 1528 1528 1528 1527 1527 1527 1526 1526 1526
1506 1505 1504 1503 1504 1504 1503 1502 1502 1502 1503 1505 1506 1507 1508 1509 1511 1512 1513 1514 1516 1517 1518 1519 1521 1521 1522 1522 1523 1522 1522 1523 1523 1523 1523 1523 1523 1522
1503 1503 1503 1503 1503 1503 1502 1502 1501 1501 1501 1501 1502 1503 1504 1505 1506 1507 1508 1509 1511 1512 1513 1514 1515 1515 1517 1517 1517 1516 1517 1517 1518 1518 1518 1519 1519 1519
1499 1500 1500 1500 1500 1501 1501 1501 1501 1501 1500 1501 1501 1502 1503 1503 1504 1504 1504 1504 1506 1507 1509 1510 1511 1512 1512 1513 1513 1512 1512 1512 1513 1514 1515 1515 1515 1515
1495 1496 1497 1498 1498 1498 1498 1499 1500 1500 1499 1499 1499 1500 1501 1501 1501 1501 1500 1502 1502 1504 1506 1506 1507 1507 1507 1508 1509 1509 1509 1508 1509 1510 1511 1511 1511 1511
1491 1491 1492 1494 1495 1495 1495 1496 1497 1497 1497 1497 1497 1498 1498 1498 1499 1498 1498 1499 1500 1501 1502 1503 1504 1504 1503 1504 1505 1505 1505 1505 1505 1505 1506 1506 1507 1507
1486 1486 1488 1488 1490 1491 1492 1493 1494 1495 1495 1495 1495 1496 1495 1495 1496 1496 1494 1496 1498 1499 1500 1501 1501 1501 1501 1501 1501 1502 1501 1500 1500 1501 1501 1502 1502 1503
1481 1481 1482 1484 1485 1486 1488 1490 1492 1493 1493 1493 1494 1494 1494 1495 1494 1495 1494 1494 1496 1497 1498 1499 1499 1499 1498 1497 1497 1497 1496 1495 1495 1496 1496 1496 1496 1497
1478 1477 1477 1478 1479 1481 1483 1485 1488 1490 1491 1492 1492 1493 1494 1494 1494 1494 1494 1495 1495 1496 1496 1496 1497 1497 1496 1495 1493 1492 1491 1490 1490 1490 1490 1491 1491 1491
1474 1473 1473 1473 1475 1476 1479 1481 1485 1487 1489 1490 1491 1492 1493 1494 1494 1494 1495 1495 1495 1494 1495 1494 1494 1494 1493 1492 1490 1489 1488 1487 1486 1486 1486 1486 1486 1486
1468 1468 1469 1470 1471 1473 1476 1479 1482 1485 1487 1488 1490 1492 1492 1493 1494 1494 1494 1494 1494 1493 1493 1492 1491 1490 1489 1487 1485 1485 1484 1482 1482 1481 1480 1480 1481 1481
1467 1468 1468 1469 1470 1473 1475 1478 1481 1484 1487 1488 1490 1491 1492 1492 1493 1493 1493 1493 1492 1491 1490 1488 1486 1485 1484 1483 1482 1480 1479 1478 1478 1477 1475 1474 1474 1475
1471 1470 1471 1471 1473 1475 1477 1480 1482 1484 1486 1488 1490 1491 1492 1492 1493 1493 1492 1491 1489 1488 1486 1485 1484 1482 1481 1479 1479 1478 1476 1474 1473 1472 1471 1470 1469 1468
1476 1475 1475 1476 1476 1477 1479 1482 1484 1485 1487 1489 1490 1491 1491 1491 1491 1490 1489 1488 1487 1485 1484 1482 1480 1479 1478 1476 1475 1473 1472 1471 1469 1467 1465 1464 1463 1462
1482 1481 1480 1480 1480 1481 1483 1485 1486 1487 1488 1489 1490 1490 1489 1489 1488 1487 1486 1485 1483 1481 1479 1478 1477 1475 1473 1472 1470 1469 1469 1468 1465 1463 1460 1458 1456 1454
1487 1486 1485 1485 1485 1485 1486 1487 1487 1488 1489 1489 1489 1489 1488 1488 1487 1486 1484 1483 1480 1478 1476 1474 1472 1471 1468 1468 1466 1465 1464 1463 1461 1458 1456 1454 1451 1449
1492 1491 1490 1489 1489 1488 1488 1488 1488 1488 1489 1489 1489 1488 1487 1487 1485 1484 1481 1479 1477 1475 1472 1470 1468 1466 1464 1463 1461 1460 1458 1457 1455 1454 1453 1450 1448 1446